Weather Roundup
Issued by NWS

Home | Current Version | Previous Version | Graphics & Text | Print | Product List | Glossary Off
Versions: 1 2 3 4 5 6 7 8 9 10 11 12 13 14 15 16 17 18 19 20 21 22 23 24 25 26 27 28 29 30 31 32 33 34 35 36 37 38 39 40 41 42 43 44 45 46 47 48 49 50

000
NZUS93 KARX 271559
HRRWXR

CURRENT HOURLY OBSERVATIONS ACROSS
MUCH OF THE UPPER MISSISSIPPI VALLEY
NATIONAL WEATHER SERVICE LA CROSSE WI
1100 AM CDT TUE SEP 27 2016


...SOUTHEAST MINNESOTA...


CITY           SKY/WX    TMP DP  RH WIND       PRES   REMARKS
ROCHESTER      SUNNY     57  41  55 W18G29    29.83F
ROCHESTER/MAYO FAIR      55  40  56 W15G30    29.83S
WINONA         PTSUNNY   57  41  54 W12G21    29.80S
AUSTIN         SUNNY     57  39  51 W20       29.86F
ALBERT LEA     SUNNY     59  37  44 NW13G18   29.88F
DODGE CENTER   SUNNY     55  41  58 W18G29    29.84F
PRESTON        SUNNY     56  40  54 NW21G30   29.84S
OWATONNA       SUNNY     57  39  51 W17       29.86F
FARIBAULT      SUNNY     57  43  58 W14G20    29.86S
$$

...ELSEWHERE IN MINNESOTA...


CITY           SKY/WX    TMP DP  RH WIND       PRES   REMARKS
MINNEAPOLIS    PTSUNNY   56  42  59 NW20G35   29.82F
INTNL FALLS    LGT RAIN  47  44  90 NW12      29.74R
DULUTH         DRIZZLE   49  45  86 NW15G21   29.69R FOG
RED WING       PTSUNNY   57  41  54 NW20G25   29.79F
REDWOOD FALLS  SUNNY     59  37  44 NW20      29.91F
MANKATO        SUNNY     57  41  55 NW18      29.88F
WORTHINGTON    SUNNY     61  39  44 W17       29.95F
FAIRMONT       SUNNY     60  37  42 NW12      29.92F
$$

...SOUTHWEST WISCONSIN...


CITY           SKY/WX    TMP DP  RH WIND       PRES   REMARKS
LA CROSSE      MOSUNNY   61  43  51 W16G22    29.79F
PRAIRIE DU CHI SUNNY     61  37  41 W21G29    29.82F
BOSCOBEL       SUNNY     61  41  47 NW15G28   29.81F
LONE ROCK      NOT AVBL
PLATTEVILLE    SUNNY     59  41  51 W17G32    29.83F
FORT MC COY    CLOUDY    55  43  64 W13G18    29.78S
MAUSTON-NEW LI CLOUDY    55  42  62 W13G25    29.75S
VIROQUA        PTSUNNY   56  40  56 W13G21    29.80F
WIS DELLS      NOT AVBL
$$

...ELSEWHERE IN WISCONSIN...


CITY           SKY/WX    TMP DP  RH WIND       PRES   REMARKS
MILWAUKEE      MOSUNNY   60  40  47 W21G26    29.75F
MADISON        PTSUNNY   57  40  52 NW12G21   29.76F
GREEN BAY      CLOUDY    57  47  69 W20       29.65F
EAU CLAIRE     NOT AVBL
BLACK RVR FLS  CLOUDY    56  42  59 W8G18     29.76S
MEDFORD        CLOUDY    49  47  92 W13G23    29.69S
WAUSAU         CLOUDY    51  45  79 W15       29.67S
WIS RAPIDS     CLOUDY    53  44  71 W12G21    29.73S
MARSHFIELD     CLOUDY    54  43  66 NW15      29.71R
RICE LAKE      NOT AVBL
$$

...NORTHEAST IOWA...


CITY           SKY/WX    TMP DP  RH WIND       PRES   REMARKS
WATERLOO       SUNNY     63  37  38 W13G21    29.89F
DUBUQUE        SUNNY     61  38  42 NW18G29   29.86F
DECORAH        SUNNY     57  41  54 NW14G24   29.83F
MASON CITY     SUNNY     60  37  42 NW18      29.92F
CHARLES CITY   SUNNY     61  34  36 W16G23    29.89F
OELWEIN        SUNNY     61  37  41 W20       29.88F
$$

...ELSEWHERE IN IOWA...


CITY           SKY/WX    TMP DP  RH WIND       PRES   REMARKS
DES MOINES     MOSUNNY   67  43  41 W10       29.96F
IOWA CITY      SUNNY     64  41  42 W12G17    29.93F
FORT DODGE     SUNNY     64  43  45 W12G18    29.95F
MARSHALLTOWN   SUNNY     63  40  42 NW16G23   29.92F
CEDAR RAPIDS   SUNNY     63  41  44 W16       29.91F
$$

...NORTHERN ILLINOIS...


CITY           SKY/WX    TMP DP  RH WIND       PRES   REMARKS
CHICAGO-OHARE  MOSUNNY   65  30  27 W21G36    29.80F
CHICAGO-MIDWAY MOSUNNY   66  32  28 W24G31    29.82F
MOLINE         SUNNY     66  40  38 W18G24    29.90F
ROCKFORD       MOSUNNY   63  39  41 W17G29    29.83F
PEORIA         SUNNY     68  37  32 NW13G21   29.92F
$$

NOTE: "FAIR" INDICATES FEW OR NO CLOUDS BELOW 12,000 FEET WITH NO
SIGNIFICANT WEATHER AND/OR OBSTRUCTIONS TO VISIBILITY. WIND
SPEEDS ARE IN MILES-PER-HOUR.




USA.gov is the U.S. government's official web portal to all federal, state and local government web resources and services.